• In Slovakia
  • List of Countries
  • For 7 days
  • Water Temperature
  • Satellite Maps
  • Weather Map
  • Weather Widgets
  • user-avatar
    Login

    Hourly Weather Ganja

    Today, 20 May, Sunday

    Time Temperature Precipitation Wind Pressure Humidity
    00:00 +20°C° 0 mm 2 mps 727 mmHg 59%
    01:00 +21°C° 0 mm 1 mps 727 mmHg 61%
    02:00 +20°C° 0 mm 1 mps 727 mmHg 62%
    03:00 +20°C° 0 mm 1 mps 726 mmHg 63%
    04:00 +20°C° 0 mm 1 mps 726 mmHg 62%
    05:00 +21°C° 0 mm 1 mps 727 mmHg 62%
    06:00 +21°C° 0 mm 1 mps 727 mmHg 61%
    07:00 +22°C° 0 mm 1 mps 726 mmHg 57%
    08:00 +23°C° 0 mm 1 mps 726 mmHg 53%
    09:00 +25°C° 0 mm 1 mps 726 mmHg 49%
    10:00 +26°C° 0.1 mm 2 mps 726 mmHg 47%
    11:00 +27°C° 0.1 mm 2 mps 726 mmHg 45%
    12:00 +27°C° 0.1 mm 2 mps 726 mmHg 44%
    13:00 +27°C° 0.4 mm 2 mps 725 mmHg 44%
    14:00 +28°C° 0.4 mm 2 mps 725 mmHg 45%
    15:00 +28°C° 0.4 mm 2 mps 725 mmHg 45%
    16:00 +27°C° 0.3 mm 2 mps 725 mmHg 49%
    17:00 +26°C° 0.3 mm 2 mps 725 mmHg 52%
    18:00 +26°C° 0.3 mm 2 mps 725 mmHg 56%
    19:00 +25°C° 0.2 mm 1 mps 725 mmHg 58%
    20:00 +24°C° 0.2 mm 1 mps 725 mmHg 60%
    21:00 +23°C° 0.2 mm 1 mps 726 mmHg 63%
    22:00 +22°C° 0.1 mm 1 mps 726 mmHg 63%
    23:00 +22°C° 0.1 mm 1 mps 726 mmHg 63%

    Tomorrow, 21 May, Monday

    Time Temperature Precipitation Wind Pressure Humidity
    00:00 +21°C° 0.1 mm 1 mps 726 mmHg 63%
    01:00 +21°C° 0.1 mm 1 mps 726 mmHg 64%
    02:00 +21°C° 0.1 mm 1 mps 725 mmHg 64%
    03:00 +20°C° 0.1 mm 1 mps 725 mmHg 65%
    04:00 +20°C° 0 mm 1 mps 725 mmHg 64%
    05:00 +21°C° 0 mm 1 mps 725 mmHg 64%
    06:00 +20°C° 0 mm 2 mps 725 mmHg 64%
    07:00 +21°C° 0 mm 2 mps 725 mmHg 60%
    08:00 +23°C° 0 mm 2 mps 726 mmHg 55%
    09:00 +25°C° 0 mm 2 mps 726 mmHg 51%
    10:00 +25°C° 0.5 mm 2 mps 725 mmHg 50%
    11:00 +26°C° 0.5 mm 2 mps 725 mmHg 49%
    12:00 +26°C° 0.5 mm 1 mps 725 mmHg 48%
    13:00 +27°C° 0.5 mm 2 mps 725 mmHg 48%
    14:00 +27°C° 0.5 mm 2 mps 725 mmHg 47%
    15:00 +28°C° 0.5 mm 2 mps 724 mmHg 47%
    16:00 +27°C° 0.3 mm 2 mps 725 mmHg 49%
    17:00 +27°C° 0.3 mm 2 mps 725 mmHg 50%
    18:00 +26°C° 0.3 mm 1 mps 725 mmHg 52%
    19:00 +25°C° 0.2 mm 1 mps 725 mmHg 54%
    20:00 +24°C° 0.2 mm 1 mps 726 mmHg 56%
    21:00 +23°C° 0.2 mm 1 mps 726 mmHg 58%
    22:00 +23°C° 0.5 mm 1 mps 726 mmHg 60%
    23:00 +21°C° 0.5 mm 2 mps 726 mmHg 62%

    Day after tomorrow, 22 May, Tuesday

    Time Temperature Precipitation Wind Pressure Humidity
    00:00 +21°C° 0.5 mm 2 mps 726 mmHg 63%
    01:00 +21°C° 0.3 mm 2 mps 726 mmHg 65%
    02:00 +21°C° 0.3 mm 1 mps 726 mmHg 66%
    03:00 +21°C° 0.3 mm 1 mps 726 mmHg 68%
    04:00 +21°C° 0 mm 1 mps 726 mmHg 67%
    05:00 +20°C° 0 mm 2 mps 727 mmHg 66%
    06:00 +21°C° 0 mm 2 mps 727 mmHg 65%
    07:00 +23°C° 0 mm 2 mps 727 mmHg 60%
    08:00 +24°C° 0 mm 2 mps 727 mmHg 55%
    09:00 +25°C° 0 mm 2 mps 728 mmHg 50%
    10:00 +26°C° 0 mm 2 mps 728 mmHg 47%
    11:00 +26°C° 0 mm 2 mps 728 mmHg 44%
    12:00 +27°C° 0 mm 3 mps 728 mmHg 42%
    13:00 +28°C° 0 mm 3 mps 728 mmHg 40%
    14:00 +29°C° 0 mm 3 mps 727 mmHg 38%
    15:00 +29°C° 0 mm 4 mps 727 mmHg 36%
    16:00 +29°C° 0 mm 3 mps 727 mmHg 38%
    17:00 +28°C° 0 mm 3 mps 727 mmHg 40%
    18:00 +28°C° 0 mm 3 mps 727 mmHg 43%
    19:00 +26°C° 0 mm 3 mps 727 mmHg 44%
    20:00 +24°C° 0 mm 3 mps 728 mmHg 46%
    21:00 +22°C° 0 mm 3 mps 728 mmHg 48%
    22:00 +21°C° 0 mm 3 mps 728 mmHg 48%
    23:00 +21°C° 0 mm 2 mps 728 mmHg 49%

    23 May, Wednesday

    Time Temperature Precipitation Wind Pressure Humidity
    00:00 +20°C° 0 mm 2 mps 728 mmHg 49%
    01:00 +19°C° 0 mm 2 mps 728 mmHg 49%
    02:00 +19°C° 0 mm 2 mps 728 mmHg 48%
    03:00 +19°C° 0 mm 2 mps 728 mmHg 48%
    04:00 +19°C° 0 mm 2 mps 728 mmHg 49%
    05:00 +19°C° 0 mm 2 mps 728 mmHg 49%
    06:00 +20°C° 0 mm 2 mps 728 mmHg 50%
    07:00 +21°C° 0 mm 2 mps 728 mmHg 45%
    08:00 +24°C° 0 mm 2 mps 728 mmHg 41%
    09:00 +25°C° 0 mm 2 mps 728 mmHg 36%
    10:00 +26°C° 0 mm 2 mps 727 mmHg 34%
    11:00 +28°C° 0 mm 2 mps 727 mmHg 32%
    12:00 +29°C° 0 mm 2 mps 727 mmHg 30%
    13:00 +29°C° 0 mm 3 mps 726 mmHg 29%
    14:00 +30°C° 0 mm 3 mps 726 mmHg 27%
    15:00 +30°C° 0 mm 4 mps 726 mmHg 26%
    16:00 +30°C° 0 mm 4 mps 725 mmHg 29%
    17:00 +29°C° 0 mm 4 mps 725 mmHg 32%
    18:00 +28°C° 0 mm 3 mps 725 mmHg 35%
    19:00 +26°C° 0 mm 3 mps 725 mmHg 36%
    20:00 +24°C° 0 mm 3 mps 726 mmHg 38%
    21:00 +22°C° 0 mm 3 mps 726 mmHg 39%
    22:00 +21°C° 0 mm 3 mps 726 mmHg 40%
    23:00 +20°C° 0 mm 2 mps 726 mmHg 40%

    24 May, Thursday

    Time Temperature Precipitation Wind Pressure Humidity
    00:00 +20°C° 0 mm 2 mps 725 mmHg 40%
    01:00 +19°C° 0 mm 2 mps 725 mmHg 39%
    02:00 +19°C° 0 mm 2 mps 725 mmHg 39%
    03:00 +18°C° 0 mm 2 mps 724 mmHg 38%
    04:00 +18°C° 0 mm 2 mps 724 mmHg 39%
    05:00 +19°C° 0 mm 2 mps 724 mmHg 40%
    06:00 +19°C° 0 mm 3 mps 724 mmHg 42%
    07:00 +21°C° 0 mm 2 mps 724 mmHg 38%
    08:00 +24°C° 0 mm 2 mps 724 mmHg 34%
    09:00 +25°C° 0 mm 2 mps 724 mmHg 30%
    10:00 +27°C° 0 mm 2 mps 723 mmHg 28%
    11:00 +28°C° 0 mm 2 mps 723 mmHg 27%
    12:00 +29°C° 0 mm 2 mps 723 mmHg 25%
    13:00 +29°C° 0 mm 3 mps 722 mmHg 25%
    14:00 +30°C° 0 mm 3 mps 722 mmHg 24%
    15:00 +30°C° 0 mm 4 mps 722 mmHg 24%
    16:00 +29°C° 0 mm 3 mps 722 mmHg 27%
    17:00 +29°C° 0 mm 3 mps 722 mmHg 29%
    18:00 +28°C° 0 mm 3 mps 721 mmHg 32%
    19:00 +26°C° 0 mm 3 mps 722 mmHg 34%
    20:00 +24°C° 0 mm 3 mps 722 mmHg 35%
    21:00 +21°C° 0 mm 3 mps 722 mmHg 37%
    22:00 +20°C° 0 mm 3 mps 722 mmHg 38%
    23:00 +20°C° 0 mm 3 mps 722 mmHg 38%

    25 May, Friday

    Time Temperature Precipitation Wind Pressure Humidity
    00:00 +19°C° 0 mm 2 mps 722 mmHg 39%
    01:00 +19°C° 0 mm 2 mps 722 mmHg 40%
    02:00 +18°C° 0 mm 2 mps 722 mmHg 41%
    03:00 +18°C° 0 mm 2 mps 722 mmHg 41%
    04:00 +18°C° 0 mm 2 mps 722 mmHg 42%
    05:00 +19°C° 0 mm 2 mps 722 mmHg 43%
    06:00 +19°C° 0 mm 2 mps 722 mmHg 44%
    07:00 +21°C° 0 mm 2 mps 722 mmHg 41%
    08:00 +24°C° 0 mm 2 mps 722 mmHg 38%
    09:00 +25°C° 0 mm 2 mps 722 mmHg 34%
    10:00 +26°C° 0 mm 2 mps 722 mmHg 34%
    11:00 +27°C° 0 mm 2 mps 722 mmHg 33%
    12:00 +28°C° 0 mm 2 mps 722 mmHg 33%
    13:00 +29°C° 0 mm 2 mps 721 mmHg 33%
    14:00 +29°C° 0 mm 2 mps 721 mmHg 33%
    15:00 +29°C° 0 mm 2 mps 721 mmHg 33%
    16:00 +29°C° 0 mm 2 mps 721 mmHg 36%
    17:00 +29°C° 0 mm 1 mps 721 mmHg 39%
    18:00 +28°C° 0 mm 1 mps 721 mmHg 42%
    19:00 +26°C° 0 mm 1 mps 722 mmHg 44%
    20:00 +25°C° 0 mm 1 mps 722 mmHg 46%
    21:00 +23°C° 0 mm 1 mps 722 mmHg 49%
    22:00 +23°C° 0 mm 1 mps 722 mmHg 50%
    23:00 +22°C° 0 mm 1 mps 722 mmHg 51%
    Show more